Regional Weather Roundup
Issued by NWS

Home | Current Version | Previous Version | Graphics & Text | Print | Product List | Glossary Off
Versions: 1 2 3 4 5 6 7 8 9 10 11 12 13 14 15 16 17 18 19 20 21 22 23 24 25 26 27 28 29 30 31 32 33 34 35 36 37 38 39 40 41 42 43 44 45 46 47 48 49 50

000
ASUS43 KTOP 240059
RWRKS

WEATHER ROUNDUP FOR KANSAS
NATIONAL WEATHER SERVICE GOODLAND KS
800 PM CDT WED JUL 23 2014

NOTE:  "FAIR" INDICATES FEW OR NO CLOUDS BELOW 12,000 FEET WITH NO
SIGNIFICANT WEATHER AND/OR OBSTRUCTIONS TO VISIBILITY.

KSZ001>006-013>018-027>032-041>047-240200-
NORTHWEST KANSAS

CITY           SKY/WX    TMP DP  RH WIND       PRES   REMARKS
GOODLAND       SUNNY     84  62  47 S8        30.18S
HAYS           CLEAR     82  61  47 E12       30.13R
HILL CITY      CLEAR     83  65  54 E13       30.14S
RUSSELL        CLEAR     83  65  54 NE8       30.11R
$$

KSZ061>065-074>080-084>089-240200-
SOUTHWEST KANSAS

CITY           SKY/WX    TMP DP  RH WIND       PRES   REMARKS
DODGE CITY     CLEAR     88  67  49 E9        30.13S
ELKHART          N/A     89  63  41 SE7         N/A
GARDEN CITY    SUNNY     87  69  54 SE9       30.13F
GREAT BEND     CLEAR     88  64  45 E8        30.09R
LIBERAL        SUNNY     90  66  45 E13       30.14R
$$

KSZ066>073-081>083-090>101-240200-
SOUTHEAST KANSAS

CITY           SKY/WX    TMP DP  RH WIND       PRES   REMARKS
CHANUTE        CLEAR     84  67  56 E7        30.07S
COFFEYVILLE    PTCLDY    85  69  58 NE8       30.05R
HUTCHINSON     CLEAR     86  67  52 NE3       30.09S
MEDICINE LODGE   N/A     88  71  57 E10       30.07S
NEWTON         CLEAR     84  63  48 E6        30.14R
PARSONS        PTCLDY    83  68  60 CALM      30.08R
WICHITA INTL   PTCLDY    85  67  54 E9        30.08S
WICHITA JABRA  CLEAR     83  65  54 E8        30.09R
WINFIELD       PTCLDY    84  70  62 E6        30.08S
$$

KSZ007>012-019>026-033>040-048>060-102>105-240200-
NORTHEAST KANSAS

CITY           SKY/WX    TMP DP  RH WIND       PRES   REMARKS
CONCORDIA      CLEAR     83  60  45 E7        30.13R
EMPORIA        CLEAR     83  63  50 NE6       30.10R
LAWRENCE       CLEAR     82  66  58 NE3       30.10R
MANHATTAN      CLEAR     85  61  44 NE10      30.10R
OLATHE IND     CLEAR     83  63  50 NE12      30.11R
OLATHE EXE     CLEAR     81  63  54 NE8       30.10R
SALINA         CLEAR     89  59  36 E9        30.10R
TOPEKA BILLARD CLEAR     84  64  50 NE9       30.10R
TOPEKA FORBES  CLEAR     83  63  50 NE8       30.11R
$$



USA.gov is the U.S. government's official web portal to all federal, state and local government web resources and services.